When you browse on this site, cookies collect data to enhance your experience and personalize the content and advertising you see.
Visit our Privacy Policy to learn more. By continuing to use the site, you agree to this use of cookies and data.
  • en Suisse
  • Liste des pays
  • À 7 jours
  • Température de l'eau
  • Carte météo
  • Widgets météo
  • user-avatar
    Se connecter

    Météo par heure à Piran

    Ce jour, 24 Février, Lundi

    Heure Température Précipitation Vent Pression Humidité
    00:00 +10°C° 0 mm 3 m/s 764 mmHg 79%
    01:00 +10°C° 0 mm 3 m/s 764 mmHg 79%
    02:00 +10°C° 0 mm 3 m/s 763 mmHg 81%
    03:00 +10°C° 0 mm 3 m/s 763 mmHg 82%
    04:00 +10°C° 0 mm 3 m/s 763 mmHg 84%
    05:00 +10°C° 0 mm 3 m/s 763 mmHg 85%
    06:00 +10°C° 0 mm 2 m/s 764 mmHg 87%
    07:00 +10°C° 0 mm 2 m/s 764 mmHg 89%
    08:00 +12°C° 0 mm 2 m/s 764 mmHg 85%
    09:00 +13°C° 0 mm 2 m/s 765 mmHg 81%
    10:00 +14°C° 0 mm 2 m/s 765 mmHg 77%
    11:00 +14°C° 0 mm 2 m/s 765 mmHg 75%
    12:00 +15°C° 0 mm 2 m/s 765 mmHg 72%
    13:00 +15°C° 0 mm 2 m/s 765 mmHg 70%
    14:00 +15°C° 0 mm 2 m/s 765 mmHg 70%
    15:00 +15°C° 0 mm 2 m/s 764 mmHg 70%
    16:00 +15°C° 0 mm 2 m/s 764 mmHg 71%
    17:00 +14°C° 0 mm 1 m/s 764 mmHg 77%
    18:00 +12°C° 0 mm 1 m/s 763 mmHg 82%
    19:00 +11°C° 0 mm 1 m/s 763 mmHg 88%
    20:00 +11°C° 0 mm 1 m/s 763 mmHg 87%
    21:00 +11°C° 0 mm 1 m/s 763 mmHg 86%
    22:00 +11°C° 0 mm 1 m/s 762 mmHg 85%
    23:00 +11°C° 0 mm 1 m/s 762 mmHg 85%

    Demain, 25 Février, Mardi

    Heure Température Précipitation Vent Pression Humidité
    00:00 +11°C° 0 mm 1 m/s 762 mmHg 86%
    01:00 +11°C° 0 mm 1 m/s 761 mmHg 86%
    02:00 +11°C° 0 mm 1 m/s 761 mmHg 85%
    03:00 +11°C° 0 mm 1 m/s 760 mmHg 83%
    04:00 +11°C° 0 mm 1 m/s 759 mmHg 82%
    05:00 +11°C° 0 mm 1 m/s 759 mmHg 83%
    06:00 +10°C° 0 mm 2 m/s 759 mmHg 85%
    07:00 +10°C° 0 mm 2 m/s 758 mmHg 86%
    08:00 +10°C° 0 mm 2 m/s 758 mmHg 87%
    09:00 +12°C° 0 mm 2 m/s 758 mmHg 89%
    10:00 +12°C° 0 mm 2 m/s 757 mmHg 90%
    11:00 +12°C° 0 mm 2 m/s 757 mmHg 90%
    12:00 +12°C° 0 mm 2 m/s 756 mmHg 91%
    13:00 +12°C° 0 mm 2 m/s 756 mmHg 91%
    14:00 +12°C° 0.1 mm 2 m/s 755 mmHg 90%
    15:00 +12°C° 0.1 mm 2 m/s 754 mmHg 90%
    16:00 +12°C° 0.1 mm 2 m/s 754 mmHg 89%
    17:00 +11°C° 0.2 mm 3 m/s 753 mmHg 89%
    18:00 +11°C° 0.2 mm 3 m/s 753 mmHg 90%
    19:00 +12°C° 0.2 mm 3 m/s 753 mmHg 90%
    20:00 +12°C° 0.5 mm 4 m/s 753 mmHg 90%
    21:00 +12°C° 0.5 mm 4 m/s 752 mmHg 89%
    22:00 +12°C° 0.5 mm 5 m/s 751 mmHg 88%
    23:00 +11°C° 0.4 mm 4 m/s 751 mmHg 88%

    Après-demain, 26 Février, Mercredi

    Heure Température Précipitation Vent Pression Humidité
    00:00 +11°C° 0.4 mm 4 m/s 750 mmHg 88%
    01:00 +11°C° 0.4 mm 4 m/s 750 mmHg 88%
    02:00 +11°C° 0.2 mm 4 m/s 749 mmHg 89%
    03:00 +11°C° 0.2 mm 3 m/s 748 mmHg 90%
    04:00 +11°C° 0.2 mm 3 m/s 748 mmHg 91%
    05:00 +10°C° 0.3 mm 3 m/s 747 mmHg 91%
    06:00 +10°C° 0.3 mm 4 m/s 747 mmHg 91%
    07:00 +10°C° 0.3 mm 4 m/s 746 mmHg 92%
    08:00 +11°C° 0.8 mm 4 m/s 746 mmHg 89%
    09:00 +10°C° 0.8 mm 5 m/s 745 mmHg 85%
    10:00 +12°C° 0.8 mm 5 m/s 745 mmHg 82%
    11:00 +12°C° 0.8 mm 5 m/s 745 mmHg 79%
    12:00 +12°C° 0.8 mm 5 m/s 745 mmHg 77%
    13:00 +12°C° 0.8 mm 5 m/s 745 mmHg 74%
    14:00 +10°C° 1 mm 6 m/s 745 mmHg 75%
    15:00 +9°C° 1 mm 7 m/s 745 mmHg 75%
    16:00 +7°C° 1 mm 8 m/s 745 mmHg 76%
    17:00 +6°C° 1 mm 8 m/s 746 mmHg 76%
    18:00 +4°C° 1 mm 7 m/s 747 mmHg 76%
    19:00 +3°C° 1 mm 7 m/s 748 mmHg 75%
    20:00 +3°C° 0.6 mm 6 m/s 749 mmHg 75%
    21:00 +3°C° 0.6 mm 5 m/s 750 mmHg 75%
    22:00 +4°C° 0.6 mm 4 m/s 751 mmHg 75%
    23:00 +3°C° 0 mm 4 m/s 751 mmHg 78%

    27 Février, Jeudi

    Heure Température Précipitation Vent Pression Humidité
    00:00 +2°C° 0 mm 5 m/s 752 mmHg 80%
    01:00 +2°C° 0 mm 5 m/s 753 mmHg 83%
    02:00 +3°C° 0 mm 4 m/s 753 mmHg 85%
    03:00 +3°C° 0 mm 4 m/s 754 mmHg 87%
    04:00 +2°C° 0 mm 3 m/s 755 mmHg 89%
    05:00 +3°C° 0 mm 3 m/s 755 mmHg 89%
    06:00 +4°C° 0 mm 2 m/s 756 mmHg 89%
    07:00 +4°C° 0 mm 2 m/s 757 mmHg 89%
    08:00 +6°C° 0 mm 1 m/s 757 mmHg 81%
    09:00 +7°C° 0 mm 1 m/s 758 mmHg 74%
    10:00 +9°C° 0 mm 1 m/s 758 mmHg 66%
    11:00 +8°C° 0 mm 2 m/s 758 mmHg 60%
    12:00 +9°C° 0 mm 2 m/s 759 mmHg 55%
    13:00 +9°C° 0 mm 2 m/s 759 mmHg 49%
    14:00 +9°C° 0 mm 2 m/s 759 mmHg 47%
    15:00 +9°C° 0 mm 2 m/s 759 mmHg 45%
    16:00 +9°C° 0 mm 2 m/s 758 mmHg 43%
    17:00 +8°C° 0 mm 3 m/s 759 mmHg 50%
    18:00 +5°C° 0 mm 3 m/s 759 mmHg 56%
    19:00 +4°C° 0 mm 3 m/s 759 mmHg 63%
    20:00 +4°C° 0 mm 4 m/s 759 mmHg 65%
    21:00 +3°C° 0 mm 4 m/s 759 mmHg 67%
    22:00 +3°C° 0 mm 4 m/s 759 mmHg 69%
    23:00 +3°C° 0 mm 4 m/s 759 mmHg 70%

    28 Février, Vendredi

    Heure Température Précipitation Vent Pression Humidité
    00:00 +4°C° 0 mm 4 m/s 758 mmHg 71%
    01:00 +4°C° 0 mm 4 m/s 758 mmHg 72%
    02:00 +4°C° 0 mm 4 m/s 758 mmHg 75%
    03:00 +4°C° 0 mm 3 m/s 757 mmHg 78%
    04:00 +4°C° 0 mm 3 m/s 757 mmHg 82%
    05:00 +4°C° 0 mm 3 m/s 757 mmHg 81%
    06:00 +3°C° 0 mm 3 m/s 757 mmHg 81%
    07:00 +3°C° 0 mm 3 m/s 757 mmHg 81%
    08:00 +5°C° 0 mm 3 m/s 757 mmHg 77%
    09:00 +8°C° 0 mm 3 m/s 757 mmHg 74%
    10:00 +9°C° 0 mm 3 m/s 757 mmHg 70%
    11:00 +10°C° 0 mm 3 m/s 757 mmHg 70%
    12:00 +10°C° 0 mm 4 m/s 757 mmHg 70%
    13:00 +11°C° 0 mm 4 m/s 757 mmHg 70%
    14:00 +11°C° 0 mm 3 m/s 757 mmHg 72%
    15:00 +10°C° 0 mm 3 m/s 757 mmHg 74%
    16:00 +10°C° 0 mm 2 m/s 757 mmHg 76%
    17:00 +10°C° 0 mm 2 m/s 757 mmHg 78%
    18:00 +10°C° 0 mm 2 m/s 757 mmHg 81%
    19:00 +9°C° 0 mm 2 m/s 757 mmHg 84%
    20:00 +9°C° 0 mm 2 m/s 757 mmHg 85%
    21:00 +10°C° 0 mm 2 m/s 757 mmHg 87%
    22:00 +10°C° 0 mm 2 m/s 757 mmHg 88%
    23:00 +10°C° 0 mm 3 m/s 757 mmHg 89%

    29 Février, Samedi

    Heure Température Précipitation Vent Pression Humidité
    00:00 +10°C° 0 mm 3 m/s 757 mmHg 89%
    01:00 +10°C° 0 mm 3 m/s 756 mmHg 90%
    02:00 +12°C° 0 mm 2 m/s 756 mmHg 90%
    03:00 +12°C° 0 mm 2 m/s 755 mmHg 90%
    04:00 +12°C° 0 mm 2 m/s 755 mmHg 91%
    05:00 +12°C° 0 mm 2 m/s 754 mmHg 92%
    06:00 +12°C° 0 mm 2 m/s 754 mmHg 92%
    07:00 +12°C° 0 mm 2 m/s 753 mmHg 93%
    08:00 +12°C° 0 mm 2 m/s 753 mmHg 89%
    09:00 +12°C° 0 mm 2 m/s 753 mmHg 86%
    10:00 +13°C° 0 mm 2 m/s 753 mmHg 82%
    11:00 +13°C° 0 mm 2 m/s 752 mmHg 83%
    12:00 +13°C° 0 mm 2 m/s 752 mmHg 83%
    13:00 +13°C° 0 mm 2 m/s 751 mmHg 84%
    14:00 +13°C° 0 mm 1 m/s 750 mmHg 83%
    15:00 +13°C° 0 mm 1 m/s 750 mmHg 83%
    16:00 +13°C° 0 mm 1 m/s 749 mmHg 83%
    17:00 +13°C° 0 mm 1 m/s 750 mmHg 84%
    18:00 +12°C° 0 mm 1 m/s 750 mmHg 85%
    19:00 +12°C° 0 mm 1 m/s 750 mmHg 86%
    20:00 +12°C° 0 mm 1 m/s 751 mmHg 88%
    21:00 +11°C° 0 mm 1 m/s 751 mmHg 90%
    22:00 +11°C° 0 mm 1 m/s 752 mmHg 91%
    23:00 +11°C° 0 mm 1 m/s 752 mmHg 90%
    Voir plus